Dewpoint
-14 -14 -14 -14 -14 -14 -13 -12 -11 -10 -10 -9 -9 -8 -7 -8 -7 -6 -4 -4 -3 -2 -1 -1 1 -2 2 4 4 4 2 0 -0 -0 -2 -2 -1 -1 -0 -1 -2 -1 -0 3 1
-14 -13 -13 -13 -13 -13 -13 -13 -13 -12 -11 -10 -9 -8 -8 -8 -8 -6 -6 -5 -3 -2 -1 -1 1 0 1 2 3 3 2 0 -1 -1 -0 -1 -1 -1 -0 -1 -2 -2 -2 1 8
-12 -11 -11 -11 -11 -12 -12 -12 -12 -12 -12 -12 -11 -9 -8 -8 -7 -7 -6 -5 -4 -2 -2 -1 -1 1 0 1 2 2 1 -1 -1 -1 0 0 0 0 1 0 -1 -2 -3 2 8
-12 -12 -11 -12 -13 -13 -13 -13 -13 -13 -12 -12 -12 -11 -8 -9 -9 -8 -6 -6 -5 -3 -2 -2 0 1 -0 -1 1 2 -0 0 1 0 1 1 -0 0 0 0 -1 -1 -0 1 2
-11 -11 -12 -14 -15 -16 -15 -14 -14 -14 -14 -13 -11 -12 -9 -8 -9 -9 -8 -7 -6 -4 -3 -2 0 1 -0 -0 1 2 -1 0 -0 0 1 -0 0 1 1 0 0 0 0 1 3
-13 -15 -16 -17 -19 -20 -22 -19 -16 -17 -16 -14 -11 -12 -9 -8 -10 -10 -10 -8 -6 -4 -4 -3 -0 1 2 1 2 0 0 -0 -1 -1 -2 -0 -1 2 -0 0 1 1 3 6 9
-13 -13 -13 -14 -14 -15 -17 -21 -24 -24 -16 -13 -11 -11 -9 -8 -9 -10 -8 -8 -5 -5 -4 -3 -1 2 1 -2 1 -0 -1 -4 -3 -4 -2 0 -2 1 -2 1 1 5 8 6 7
-14 -14 -14 -14 -14 -14 -15 -17 -21 -21 -15 -13 -11 -11 -8 -10 -10 -11 -9 -8 -6 -4 -4 -2 -1 1 2 -2 -3 -4 -3 -2 -4 -3 -2 -2 -1 -4 -3 -2 2 8 9 9 8
-17 -16 -16 -16 -16 -16 -15 -16 -19 -19 -13 -10 -10 -7 -8 -11 -10 -10 -9 -7 -6 -4 -3 -1 -0 -2 -3 -3 -6 -5 -0 -1 -2 -3 -2 -2 -1 -3 2 4 5 7 6 4 4
-18 -18 -17 -17 -16 -16 -16 -16 -17 -15 -11 -12 -8 -8 -12 -9 -10 -8 -8 -6 -5 -4 -4 -3 -3 -4 -9 -6 -7 -4 -2 -2 -1 -2 -2 -3 2 3 3 5 7 7 6 3 4
-18 -18 -18 -17 -16 -16 -16 -16 -15 -13 -13 -10 -9 -10 -10 -10 -10 -9 -8 -6 -6 -7 -6 -2 -4 -5 -5 -4 -4 -2 -2 -1 -2 -3 -3 -0 0 2 5 4 6 6 8 7 4
-16 -15 -10 -6 -6 -13 -14 -14 -9 -8 -2 -8 -5 -7 -7 -11 -9 -8 -8 -5 -5 -6 -4 -7 -8 -4 -3 -4 -4 -3 -4 -2 -2 -2 -5 -4 -3 -5 -4 -3 2 5 6 8 8
-14 -10 -3 -1 -6 -8 -13 -12 -10 -5 0 -6 -3 -5 -8 -8 -8 -6 -7 -5 -4 -6 -4 -9 -7 -5 -4 -8 -5 -5 -4 -2 0 -1 -4 -5 -4 -5 -7 -8 -3 2 5 7 9
-10 -7 -1 -2 -10 -12 -11 -11 -9 -3 -3 -8 -7 -7 -9 -9 -8 -6 -6 -5 -5 -6 -5 -10 -8 -5 -6 -10 -4 -7 -4 -2 0 -3 -3 -5 -3 -6 -7 -6 -7 -4 -0 3 9
-4 -4 -1 -3 -11 -13 -12 -11 -8 -3 9 -10 -8 -8 -11 -6 -6 -7 -6 -5 -5 -6 -6 -9 -8 -5 -10 -9 -4 -6 -3 -2 -1 -3 -4 -3 -3 -5 -6 -5 -6 -8 -7 -4 3
-0 -1 1 -2 -7 -8 -12 -10 -5 0 7 -6 -7 -8 -10 -7 -7 -9 -9 -8 -7 -9 -9 -8 -8 -5 -9 -6 -5 -4 -5 -5 -4 -2 0 -2 -1 -4 -4 -4 -6 -7 -6 -6 -4
-0 3 1 -1 -5 -9 -11 -7 3 0 -12 -8 -7 -8 -8 -6 -9 -9 -7 -6 -7 -0 -5 -9 -11 -11 -6 -6 -5 -4 -5 -4 -3 0 -0 -4 -2 -3 -5 -5 -5 -6 -5 -4 -3
1 4 2 -2 -5 -10 -10 -8 -1 -10 -10 -7 -8 -10 -7 -8 -9 -10 -10 -6 -7 -8 -7 -6 -4 -11 -9 -4 -2 -3 -5 -3 -6 -5 -4 -5 -2 -2 -6 -5 -5 -4 -3 -3 -3
6 4 2 -2 -8 -10 -8 -2 -6 -11 -6 -6 -9 -12 -11 -10 -10 -10 -10 -5 -5 -7 -8 -9 -8 -10 -8 -5 -3 -5 -4 -3 -4 -4 -4 -4 -4 -6 -5 -4 -4 -4 -4 -4 -4
5 5 -1 -6 -9 -9 -8 -3 -9 -9 -5 -7 -10 -10 -10 -10 -10 -10 -12 -6 -4 -6 -7 -8 -7 -9 -9 -10 -8 -6 -6 -7 -6 -3 -4 -6 -5 -1 -2 -2 -4 -5 -5 -6 -6
7 3 -2 -6 -6 -6 -3 -6 -9 -7 -6 -7 -9 -9 -9 -9 -8 -9 -11 -7 -5 -6 -7 -7 -7 -9 -9 -10 -10 -7 -8 -8 -6 -4 -5 -6 -5 -4 -2 -3 -4 -6 -7 -8 -8
3 -1 -2 -5 -4 -4 -6 -7 -5 -5 -6 -5 -6 -7 -8 -7 -7 -9 -10 -10 -6 -7 -8 -7 -7 -6 -9 -10 -11 -5 -8 -9 -5 -7 -7 -7 -4 -4 -4 -4 -4 -5 -6 -8 -9
1 -4 -5 -6 -2 -6 -9 -7 -5 -6 -6 -5 -5 -5 -7 -6 -8 -9 -10 -7 -8 -10 -10 -8 -8 -5 -6 -8 -7 -6 -7 -9 -8 -7 -5 -5 -4 -4 -4 -5 -6 -5 -6 -8 -10
-1 -2 -8 -7 -8 -10 -8 -8 -9 -7 -5 -5 -6 -6 -6 -6 -7 -7 -7 -7 -8 -9 -5 -8 -8 -8 -3 -5 -11 -9 -9 -8 -7 -3 -5 -7 -4 -2 -3 -5 -8 -6 -8 -9 -11
1 -2 -5 -2 -4 -5 -7 -6 -5 -5 -5 -5 -6 -6 -7 -8 -7 -7 -8 -9 -10 -5 -4 -5 -5 -5 -7 -8 -7 -7 -6 -6 -5 -6 -5 -6 -7 -3 -5 -7 -9 -8 -9 -10 -11
-5 -5 -8 -7 -6 -4 -4 -3 -3 -5 -7 -6 -5 -7 -7 -7 -8 -8 -9 -9 -9 -8 -5 -4 -3 -4 -2 -4 -5 -4 -5 -5 -6 -6 -6 -7 -3 -6 -6 -10 -10 -9 -10 -11 -11
1 -3 -6 -4 -4 -4 -5 -5 -5 -6 -7 -7 -6 -7 -7 -7 -8 -8 -8 -9 -9 -7 -5 -4 -3 -3 1 -5 -4 -3 -4 -5 -3 -3 -3 -4 -5 -7 -9 -10 -10 -9 -10 -11 -11
Wind_Speed
10 9 9 9 9 9 10 10 11 11 10 10 11 11 10 1 5 8 5 6 8 9 12 12 9 7 4 2 1 1 3 5 4 5 6 9 11 14 13 20 20 20 20 18 19
12 12 11 11 10 10 9 9 10 10 10 10 10 11 11 7 1 8 8 7 8 9 10 12 11 7 1 1 0 3 4 4 7 11 13 19 18 19 17 19 21 21 20 16 12
11 12 12 13 13 12 12 12 11 10 10 10 11 10 11 8 0 5 9 8 7 8 9 11 12 7 2 2 1 1 5 7 13 13 17 23 23 22 20 20 20 16 16 10 10
11 12 13 14 14 15 14 12 13 13 11 11 10 9 8 5 3 7 8 8 7 7 8 10 7 7 4 5 3 6 10 12 11 18 17 20 18 20 21 28 22 22 20 18 17
12 13 14 14 14 16 16 15 15 14 14 11 9 8 6 3 2 6 8 8 7 7 8 8 4 4 6 7 10 7 10 13 18 23 18 14 17 16 22 24 23 22 23 23 20
14 14 15 16 17 18 18 15 17 18 16 11 8 6 5 4 3 7 8 8 5 5 7 7 4 5 5 7 5 8 19 23 14 10 12 9 13 4 12 10 12 16 17 18 14
15 16 17 19 20 20 20 19 19 19 11 8 7 4 6 4 4 9 9 10 3 6 6 5 4 3 6 8 5 11 10 13 2 10 7 11 8 7 13 9 15 14 9 9 12
16 18 19 19 20 20 20 21 21 15 9 7 4 3 2 3 4 9 8 10 6 3 5 3 4 4 4 11 5 6 4 9 11 10 4 8 9 9 16 13 18 2 4 7 2
17 19 20 20 20 20 21 20 18 15 6 3 4 1 2 2 6 5 8 9 4 3 3 2 3 2 5 9 5 5 8 14 9 8 10 6 12 19 21 22 13 0 8 10 9
17 19 20 20 21 19 20 19 14 8 4 5 2 0 1 4 9 1 10 8 1 3 1 2 1 2 7 9 9 11 8 11 9 10 12 13 15 16 37 28 17 9 6 6 9
17 18 20 22 22 18 21 15 11 3 15 4 8 4 2 8 2 4 12 5 2 2 4 2 3 7 11 7 8 7 8 10 6 7 7 15 16 15 9 17 21 18 12 4 16
17 18 20 22 20 19 18 12 9 7 8 6 4 2 0 6 0 5 11 2 3 2 5 2 5 6 9 4 9 2 10 9 2 6 6 19 21 19 21 22 17 17 21 7 9
17 18 20 23 16 21 18 17 15 14 3 4 3 2 3 5 2 5 10 3 3 2 6 3 3 9 4 5 13 1 9 8 4 7 1 1 19 19 16 30 35 39 31 25 10
19 21 22 23 11 19 15 19 16 12 2 3 2 3 5 6 1 5 7 4 1 5 2 1 3 5 7 7 8 7 9 6 6 2 5 10 5 18 18 19 23 27 38 37 20
20 19 22 21 17 16 17 18 14 3 1 4 2 4 7 3 5 5 6 3 1 4 3 4 5 6 11 8 5 6 6 4 4 5 2 14 4 14 18 19 20 24 24 29 35
20 19 20 20 17 18 17 15 6 1 2 2 3 5 4 5 5 8 3 4 2 2 1 2 1 2 6 8 2 8 2 2 1 2 5 8 2 10 11 16 19 25 26 27 30
19 20 20 19 17 17 14 9 2 1 1 5 3 5 2 5 3 7 4 6 5 3 7 4 1 2 2 6 1 13 2 2 2 2 3 4 4 6 12 15 15 19 24 27 29
17 18 20 15 16 12 12 2 1 1 2 1 2 2 2 6 3 6 1 2 5 2 1 4 2 6 7 3 4 5 5 3 1 1 2 3 3 4 9 17 16 19 22 27 30
17 18 17 15 9 10 5 1 2 1 1 6 5 1 1 1 3 4 4 2 3 4 4 4 3 1 2 2 3 4 4 3 2 1 2 2 3 6 8 14 20 24 26 28 28
18 18 12 5 7 7 1 3 2 2 1 1 3 2 2 3 3 3 1 1 1 1 3 2 4 1 3 2 2 4 2 2 1 2 2 4 4 3 9 12 14 20 23 25 25
16 9 5 5 8 3 2 3 3 4 3 2 2 3 3 2 1 2 0 1 1 1 1 2 2 1 2 3 3 1 3 3 1 3 2 2 3 4 5 6 8 13 18 21 23
8 3 4 4 2 1 2 3 1 3 4 3 2 3 3 2 2 2 3 2 2 2 1 0 1 3 3 2 3 1 1 1 3 2 2 4 2 4 5 6 9 11 15 17 20
4 6 7 2 2 3 2 3 4 3 3 2 2 4 1 3 3 3 2 2 4 1 0 3 2 4 3 3 4 4 2 1 2 0 6 4 3 5 3 4 9 10 13 15 19
3 2 3 5 4 3 3 3 3 4 4 4 2 2 1 3 3 2 2 1 3 1 1 4 3 7 7 9 2 8 5 5 6 4 3 9 4 9 1 4 9 10 11 15 19
8 6 6 2 5 5 2 1 3 3 4 4 2 7 5 3 2 4 2 2 2 1 2 3 5 5 11 13 12 12 14 11 12 14 8 1 5 6 2 7 9 9 12 15 18
7 5 4 2 3 5 4 4 5 3 5 4 5 4 6 5 4 4 2 2 5 1 2 1 3 2 7 10 6 9 10 9 10 11 14 11 3 4 2 5 7 8 12 16 19
17 11 6 3 4 4 4 6 6 4 6 4 6 4 6 8 7 8 8 8 6 3 3 3 3 2 5 1 10 11 2 3 4 2 3 7 2 2 0 6 7 6 11 14 17
Wind_Direction
38 32 26 20 12 8 3 2 4 7 6 5 7 6 6 324 38 31 24 10 13 13 20 13 14 32 81 88 52 196 262 305 292 285 302 272 270 275 276 271 265 266 267 274 290
37 31 25 17 11 2 355 350 348 347 349 353 359 1 3 7 308 21 13 7 1 5 5 6 6 19 67 41 204 267 280 312 297 284 286 292 282 279 279 272 266 265 270 265 264
34 26 18 13 5 357 350 344 339 332 327 330 339 352 355 6 256 6 8 1 345 349 348 355 355 7 12 333 348 261 279 320 297 299 295 289 283 280 262 264 265 271 266 260 249
27 19 13 8 359 352 346 345 341 332 324 316 320 335 345 10 12 348 353 350 337 331 337 343 342 348 322 317 284 274 272 285 286 303 301 295 296 275 264 258 262 269 274 270 259
11 9 2 357 351 348 344 334 332 328 320 306 301 311 337 324 272 350 349 338 325 323 326 330 332 338 325 310 305 251 302 303 293 295 291 296 289 275 268 260 266 273 270 266 249
4 2 358 355 351 346 341 334 328 325 319 297 280 299 318 262 325 351 348 331 308 319 326 328 305 308 289 298 284 319 301 296 302 299 303 296 300 301 287 293 271 270 266 262 245
356 355 353 351 350 346 341 340 332 325 320 313 276 280 298 261 325 336 338 337 292 311 319 315 321 313 314 307 303 296 303 320 43 340 319 317 285 253 316 307 314 276 262 247 241
351 349 348 347 347 343 338 340 334 328 323 313 274 283 247 233 300 326 338 344 312 318 327 328 326 306 305 307 297 306 255 350 350 348 358 332 320 16 344 325 319 139 124 59 20
353 351 351 348 347 344 339 342 333 328 336 334 301 236 153 311 327 316 341 340 297 311 343 333 332 319 334 343 335 20 327 337 334 19 332 345 327 354 5 3 5 247 58 355 301
353 354 352 350 348 348 346 344 336 340 7 351 49 223 77 336 327 343 348 349 305 319 352 9 8 296 359 4 357 328 331 334 332 356 353 9 27 34 12 360 28 353 44 21 285
356 358 356 354 352 352 355 359 358 346 338 325 299 260 275 341 8 357 353 352 4 83 353 14 46 8 339 334 307 306 307 318 2 6 7 54 47 35 13 2 17 12 352 346 305
353 355 356 353 350 353 354 32 20 321 313 341 338 248 223 351 120 7 360 24 32 21 327 162 34 341 316 293 331 312 337 14 94 5 62 68 56 39 36 22 22 0 358 333 244
348 350 354 352 352 352 2 9 359 351 274 315 1 6 353 358 10 352 6 24 51 336 19 51 14 321 335 346 352 74 5 334 307 319 200 28 51 27 25 35 31 15 4 355 130
344 347 351 356 358 353 355 350 348 348 297 34 24 357 345 337 105 7 9 14 69 355 20 18 351 347 343 13 343 345 349 301 302 274 55 346 76 22 8 29 36 21 8 8 40
338 342 346 353 351 352 342 335 339 359 6 10 355 344 342 21 333 359 9 42 10 10 327 9 347 358 357 350 336 326 335 326 334 68 106 21 56 10 11 9 9 14 20 16 35
331 336 340 344 345 340 334 331 339 246 266 19 332 358 344 26 6 339 18 38 77 115 98 351 324 319 326 310 258 322 223 239 242 321 49 7 0 35 22 354 352 6 25 25 29
327 333 336 339 337 336 337 333 331 187 12 357 347 358 351 337 14 12 26 39 23 18 15 334 26 336 351 326 345 6 40 203 171 52 52 355 36 31 0 13 7 7 23 33 36
324 333 331 335 334 337 339 288 269 60 345 16 319 302 35 360 50 357 39 67 58 23 79 355 334 5 348 29 315 359 2 6 103 143 62 356 116 53 26 23 32 35 37 40 37
323 329 325 323 336 338 348 306 287 198 309 332 300 288 36 53 335 349 29 46 18 355 16 343 317 299 318 346 332 6 26 332 83 89 237 101 117 195 40 36 31 32 32 32 32
319 325 314 331 336 337 302 267 267 234 237 204 292 350 304 335 312 23 18 35 113 23 299 120 290 83 320 276 76 39 75 315 356 211 176 162 207 197 12 17 22 26 26 24 23
317 317 282 318 331 334 245 247 284 267 225 211 267 275 265 281 280 301 140 136 178 138 84 172 228 197 248 23 340 93 49 55 307 303 286 230 153 45 63 32 33 30 27 25 21
296 279 264 302 22 353 237 206 275 265 237 236 244 250 247 257 252 251 229 232 183 158 283 165 281 280 304 349 254 282 351 27 320 341 305 311 111 90 79 43 16 18 14 14 17
245 266 266 246 236 218 249 259 237 222 233 214 242 229 169 251 274 238 251 190 144 158 271 179 214 296 173 181 166 224 188 103 107 251 248 281 112 135 95 46 21 9 6 6 7
227 308 255 204 191 234 208 228 249 227 251 207 238 185 175 245 229 287 252 211 251 329 289 200 230 243 265 301 323 266 213 223 245 246 244 238 171 186 127 11 8 8 3 2 2
209 226 225 170 227 197 183 252 203 234 219 211 204 226 190 239 243 236 240 294 196 355 126 229 255 223 260 274 269 265 267 253 227 232 237 81 242 143 35 0 356 354 360 0 360
206 205 214 166 182 169 189 215 220 233 197 221 220 186 192 224 229 280 206 208 265 132 159 195 269 263 271 261 260 265 260 247 240 245 250 251 194 140 158 350 358 3 358 358 356
223 209 172 192 209 169 212 208 211 190 227 232 219 172 211 238 246 269 251 257 268 235 221 247 246 236 268 240 303 270 223 168 131 136 266 221 85 51 148 358 1 4 1 355 351
Height
1571 1569 1568 1567 1566 1564 1563 1561 1560 1558 1555 1554 1552 1550 1548 1547 1546 1545 1544 1544 1541 1539 1536 1535 1532 1529 1529 1529 1529 1528 1523 1517 1519 1518 1512 1514 1514 1512 1511 1508 1507 1506 1504 1503 1501
1572 1570 1569 1567 1566 1564 1562 1560 1559 1557 1556 1554 1551 1550 1548 1546 1546 1545 1544 1542 1541 1539 1537 1536 1533 1531 1530 1529 1529 1527 1522 1517 1517 1515 1513 1510 1510 1508 1507 1503 1500 1500 1501 1499 1497
1572 1571 1569 1568 1566 1563 1562 1560 1557 1556 1554 1553 1552 1549 1547 1546 1547 1545 1543 1541 1540 1539 1537 1535 1533 1531 1529 1528 1528 1526 1519 1516 1514 1513 1512 1507 1504 1504 1502 1496 1497 1497 1496 1495 1493
1573 1571 1570 1568 1565 1563 1561 1559 1557 1555 1553 1551 1550 1549 1547 1546 1548 1544 1542 1540 1539 1538 1536 1534 1533 1531 1529 1526 1527 1524 1518 1518 1513 1511 1509 1505 1500 1497 1496 1491 1492 1493 1492 1490 1490
1573 1572 1570 1568 1565 1562 1560 1558 1556 1553 1551 1549 1548 1548 1547 1546 1545 1541 1540 1539 1537 1537 1536 1534 1532 1531 1528 1526 1525 1521 1517 1515 1511 1508 1505 1502 1498 1495 1488 1487 1488 1488 1487 1484 1484
1574 1572 1570 1568 1565 1561 1558 1555 1553 1551 1548 1546 1546 1546 1546 1546 1543 1541 1540 1538 1537 1536 1535 1534 1533 1531 1529 1526 1525 1520 1516 1511 1507 1505 1502 1500 1494 1494 1484 1483 1484 1483 1481 1480 1478
1574 1572 1570 1567 1564 1560 1557 1554 1551 1547 1545 1544 1543 1543 1544 1545 1542 1541 1540 1538 1536 1535 1534 1533 1532 1532 1529 1524 1523 1519 1514 1506 1504 1503 1500 1499 1485 1488 1484 1483 1481 1478 1478 1476 1476
1574 1572 1570 1567 1563 1559 1555 1552 1548 1544 1543 1542 1542 1542 1541 1541 1541 1540 1538 1536 1535 1533 1533 1532 1532 1531 1529 1525 1521 1516 1513 1506 1501 1504 1501 1500 1487 1484 1485 1483 1478 1476 1478 1477 1475
1574 1571 1569 1565 1562 1558 1553 1550 1546 1543 1542 1541 1541 1541 1541 1541 1540 1539 1538 1536 1533 1533 1532 1532 1531 1531 1529 1524 1512 1514 1517 1510 1504 1505 1504 1500 1491 1490 1489 1483 1479 1479 1478 1477 1478
1573 1571 1567 1564 1560 1556 1552 1548 1544 1542 1542 1540 1540 1543 1542 1542 1539 1538 1537 1534 1534 1532 1532 1531 1531 1529 1524 1521 1522 1521 1517 1512 1509 1507 1502 1498 1499 1496 1491 1491 1487 1482 1479 1475 1483
1573 1570 1567 1564 1559 1555 1552 1547 1547 1545 1543 1542 1541 1539 1539 1539 1538 1537 1535 1534 1533 1533 1533 1531 1530 1532 1529 1528 1527 1526 1521 1514 1507 1510 1504 1503 1503 1504 1500 1494 1488 1486 1481 1480 1475
1572 1569 1566 1562 1559 1555 1552 1549 1551 1552 1546 1541 1539 1538 1537 1537 1536 1537 1535 1534 1533 1533 1532 1530 1531 1533 1531 1529 1526 1523 1513 1510 1509 1511 1504 1501 1504 1505 1505 1501 1494 1489 1481 1478 1477
1571 1568 1565 1561 1557 1555 1551 1551 1549 1547 1547 1542 1540 1540 1540 1539 1537 1536 1535 1533 1533 1531 1535 1528 1533 1533 1531 1526 1522 1520 1519 1516 1517 1511 1510 1502 1500 1504 1506 1502 1495 1488 1483 1475 1474
1571 1568 1565 1561 1559 1555 1552 1550 1548 1546 1543 1543 1541 1541 1540 1537 1538 1536 1535 1536 1533 1533 1535 1533 1534 1532 1528 1525 1528 1514 1522 1521 1515 1502 1504 1501 1506 1504 1508 1506 1501 1503 1490 1483 1475
1571 1568 1565 1561 1560 1557 1555 1550 1547 1547 1551 1545 1543 1541 1539 1540 1540 1537 1535 1534 1534 1536 1536 1535 1534 1532 1526 1528 1528 1522 1523 1520 1515 1505 1500 1508 1507 1516 1509 1504 1512 1512 1507 1497 1485
1570 1567 1564 1562 1559 1556 1552 1549 1548 1548 1556 1545 1543 1543 1541 1539 1539 1537 1536 1535 1535 1535 1536 1536 1537 1536 1532 1529 1527 1525 1521 1518 1514 1508 1517 1522 1515 1519 1526 1530 1521 1517 1513 1505 1497
1569 1566 1563 1561 1559 1556 1552 1549 1551 1547 1548 1548 1547 1545 1545 1543 1540 1539 1539 1537 1538 1537 1537 1533 1535 1534 1535 1527 1525 1522 1514 1514 1514 1516 1519 1524 1519 1527 1529 1534 1532 1525 1519 1513 1507
1567 1565 1562 1559 1558 1556 1553 1551 1555 1552 1548 1549 1548 1546 1543 1545 1543 1541 1540 1538 1544 1541 1541 1541 1539 1537 1534 1535 1534 1532 1530 1526 1525 1522 1520 1522 1524 1533 1537 1538 1536 1532 1527 1522 1517
1564 1562 1560 1558 1557 1556 1555 1554 1549 1551 1553 1551 1545 1543 1543 1545 1545 1541 1543 1542 1546 1545 1541 1540 1537 1539 1539 1537 1537 1528 1531 1538 1531 1535 1525 1529 1532 1536 1538 1540 1538 1534 1531 1527 1524
1562 1561 1558 1556 1556 1556 1556 1555 1553 1553 1552 1552 1548 1548 1544 1543 1543 1541 1543 1545 1544 1546 1546 1545 1542 1540 1538 1540 1538 1533 1539 1531 1531 1526 1524 1523 1524 1519 1536 1542 1542 1541 1540 1535 1531
1560 1559 1556 1555 1555 1557 1554 1554 1554 1553 1553 1552 1549 1547 1546 1544 1546 1543 1541 1545 1543 1545 1545 1544 1542 1536 1537 1537 1536 1534 1532 1538 1538 1533 1522 1518 1515 1540 1545 1547 1546 1545 1543 1541 1537
1560 1558 1554 1554 1557 1558 1554 1554 1554 1552 1551 1550 1550 1549 1547 1548 1544 1542 1541 1541 1543 1543 1543 1545 1542 1538 1534 1538 1542 1540 1536 1534 1534 1533 1534 1529 1524 1547 1549 1550 1549 1549 1547 1543 1539
1556 1555 1552 1552 1553 1553 1554 1552 1551 1550 1550 1550 1548 1549 1548 1547 1546 1545 1544 1544 1543 1543 1542 1543 1541 1538 1532 1537 1538 1536 1537 1538 1537 1538 1532 1527 1521 1547 1549 1549 1549 1548 1545 1543 1540
1554 1554 1551 1550 1549 1552 1550 1549 1549 1548 1548 1547 1548 1548 1548 1547 1547 1544 1545 1544 1544 1543 1543 1543 1540 1534 1531 1526 1532 1531 1534 1536 1534 1536 1523 1519 1532 1545 1547 1548 1548 1547 1546 1543 1540
1551 1549 1548 1547 1548 1549 1550 1550 1546 1545 1546 1546 1545 1545 1544 1545 1546 1544 1544 1543 1543 1543 1543 1543 1537 1539 1533 1531 1532 1531 1528 1529 1534 1530 1528 1518 1525 1543 1550 1551 1551 1549 1546 1544 1541
1545 1547 1547 1544 1546 1547 1547 1545 1545 1544 1544 1543 1542 1540 1543 1542 1540 1540 1543 1544 1542 1543 1542 1543 1535 1539 1535 1528 1531 1528 1523 1524 1526 1527 1526 1525 1536 1547 1549 1550 1549 1549 1547 1544 1540
1540 1541 1541 1545 1545 1543 1540 1537 1539 1541 1539 1539 1539 1539 1540 1538 1540 1540 1540 1541 1541 1540 1540 1542 1537 1537 1526 1530 1526 1515 1522 1526 1531 1536 1534 1527 1536 1548 1547 1546 1548 1548 1545 1542 1539